Flag for Australia Weather past 2 weeks in Alice Springs, Northern Territory, Australia

Now
57 °F

Clear.


Feels Like: 56 °F
Forecast: 42 / 74 °F
Wind: 6 mph from Southeast

Location: Alice Springs Aerodrome

Current Time: Aug 28, 2014 at 8:56:54 PM

Latest Report: Aug 28, 2014 at 8:30 PM


Visibility: N/A

Pressure: 30.21 "Hg

Humidity: 27%

Dew point: 23 °F

Location of Alice SpringsLocation

Historic Weather in Alice Springs — Graph

°F

Alice Springs temperature yesterday

Maximum temperature yesterday: 75 °F (at 3:30 PM)
Minimum temperature yesterday: 36 °F (at 5:30 AM)
Average temperature yesterday: 56 °F

Past Weeks' High & Low Weather Summary

 TemperatureHumidityPressure
High77 °F (Aug 24, 3:30 PM)87% (Aug 17, 6:30 AM)30.39 "Hg (Aug 17, 6:30 AM)
Low30 °F (Aug 14, 4:30 AM)6% (Aug 27, 4:00 PM)30.07 "Hg (Aug 20, 3:30 PM)
Average53 °F34%30.22 "Hg
* Reported Aug 13 7:30 PM — Aug 28 7:30 PM, Alice Springs, Weather by CustomWeather, © 2014

Note: Actual official high and low records may vary slightly from our data, if they occured in-between our weather recording intervals... More about our weather records

Advertising

Alice Springs weather history for previous 24 hours

 ConditionsComfort  
Time TempWeatherWind HumidityBarometerVisibility
7:30 PM
Aug 28
59 °FClear.7 mph23%30.21 "HgN/A
7:00 PM63 °FClear.8 mph20%30.18 "HgN/A
6:30 PM66 °FClear.9 mph17%30.18 "HgN/A
6:00 PM70 °FClear.12 mph15%30.18 "HgN/A
5:30 PM72 °FSunny.12 mph13%30.18 "HgN/A
5:00 PM73 °FPassing clouds.12 mph13%30.15 "HgN/A
4:30 PM73 °FSunny.12 mph12%30.15 "Hg10 mi
4:00 PM73 °FPassing clouds.8 mph12%30.18 "HgN/A
3:30 PM73 °FPassing clouds.7 mph14%30.18 "HgN/A
3:00 PM73 °FPassing clouds.12 mph12%30.18 "HgN/A
2:30 PM73 °FPassing clouds.15 mph13%30.18 "HgN/A
2:00 PM72 °FSunny.14 mph14%30.21 "Hg10 mi
1:30 PM70 °FPassing clouds.12 mph16%30.21 "HgN/A
1:00 PM70 °FPassing clouds.10 mph16%30.24 "HgN/A
12:30 PM68 °FPassing clouds.15 mph20%30.24 "HgN/A
11:30 AM68 °FSunny.12 mph20%30.27 "Hg10 mi
11:00 AM66 °FSunny.17 mph21%30.27 "Hg10 mi
10:30 AM66 °FSunny.15 mph21%30.30 "Hg10 mi
9:30 AM61 °FSunny.10 mph23%30.27 "Hg10 mi
9:00 AM57 °FSunny.3 mph27%30.27 "Hg10 mi
8:30 AM52 °FSunny.No wind35%30.27 "Hg10 mi
8:00 AM46 °FSunny.3 mph37%30.27 "Hg10 mi
7:30 AM41 °FSunny.6 mph42%30.24 "Hg10 mi
7:00 AM37 °FSunny.7 mph52%30.24 "Hg10 mi
6:30 AM39 °FSunny.6 mph48%30.24 "Hg10 mi
5:30 AM37 °FClear.7 mph52%30.21 "HgN/A
5:00 AM41 °FClear.6 mph42%30.21 "HgN/A
4:30 AM41 °FClear.6 mph49%30.21 "HgN/A
4:00 AM41 °FClear.5 mph42%30.21 "HgN/A
3:30 AM41 °FClear.5 mph45%30.21 "HgN/A
3:00 AM43 °FClear.6 mph39%30.21 "HgN/A
2:30 AM43 °FClear.6 mph36%30.21 "HgN/A
1:30 AM46 °FClear.7 mph34%30.24 "HgN/A
12:30 AM45 °FClear.3 mph39%30.24 "HgN/A
12:00 AM46 °FClear.No wind34%30.24 "HgN/A
11:30 PM
Aug 27
48 °FClear.No wind29%30.24 "HgN/A
11:00 PM50 °FClear.No wind30%30.24 "HgN/A
10:30 PM50 °FClear.No wind30%30.24 "HgN/A
9:30 PM54 °FClear.1 mph26%30.24 "HgN/A
9:00 PM54 °FClear.6 mph33%30.24 "HgN/A
8:30 PM54 °FClear.7 mph28%30.24 "HgN/A
8:00 PM57 °FClear.7 mph21%30.21 "HgN/A
Weather by CustomWeather, © 2014

See weather overviewHow to use our weather pages